Weather History for KBKF - April, 2013

Change the Weather History Date:

Sunday, April 21, 2013

  Actual Average Record
Temperature  
Mean Temperature 48 °F -  
Max Temperature 60 °F 57 °F 71 °F (2006)
Min Temperature 35 °F 34 °F 28 °F (2002)
Degree Days  
Heating Degree Days 18    
Moisture  
Dew Point 28 °F    
Average Humidity 53    
Maximum Humidity 87    
Minimum Humidity 23    
Precipitation  
Precipitation 0.00 in - - ()
Sea Level Pressure  
Sea Level Pressure 29.95 in    
Wind  
Wind Speed 7 mph (South)    
Max Wind Speed 15 mph    
Max Gust Speed -    
Visibility 10 miles    
Events      
Averages and records for this station are not official NWS values.
T = Trace of Precipitation, MM = Missing Value Source: NWS Daily Summary

Daily Weather History Graph

Daily Weather History Graph

Search for Another Location

Airport or City:

Trip Planner

Search our weather history database for the weather conditions in past years. The results will help you decide how hot, cold, wet, or windy it might be!

Date:

Astronomy

Apr. 21, 2013 Rise Set
Actual Time 6:12 AM MDT 7:43 PM MDT
Civil Twilight 5:44 AM MDT 8:11 PM MDT
Nautical Twilight 5:10 AM MDT 8:46 PM MDT
Astronomical Twilight 4:33 AM MDT 9:22 PM MDT
Moon 3:32 PM MDT (4/21) 3:35 AM MDT (4/21)
Length of Visible Light 14h 27m
Length of Day
13h 31m
Waxing Gibbous, 80% of the Moon is Illuminated
Apr 21
Waxing Gibbous
Apr 25
Full
May 2
Last Quarter
May 9
New
May 17
First Quarter

Hourly Weather History & Observations

Time (MDT) Temp. Windchill Dew Point Humidity Pressure Visibility Wind Dir Wind Speed Gust Speed Precip Events Conditions
12:55 AM 39.2 °F 33.0 °F 35.6 °F 87% 29.95 in 10.0 mi SW 9.2 mph - N/A   Scattered Clouds
1:55 AM 39.2 °F 35.0 °F 33.8 °F 81% 29.95 in 10.0 mi SSW 5.8 mph - N/A   Mostly Cloudy
2:55 AM 37.4 °F 32.8 °F 32.0 °F 81% 29.95 in 10.0 mi SW 5.8 mph - N/A   Mostly Cloudy
3:55 AM 37.4 °F 32.8 °F 32.0 °F 81% 29.95 in 10.0 mi WSW 5.8 mph - N/A   Scattered Clouds
4:55 AM 37.4 °F - 32.0 °F 81% 29.96 in 10.0 mi SSW 2.3 mph - N/A   Partly Cloudy
5:55 AM 39.2 °F 35.0 °F 30.2 °F 70% 29.99 in 10.0 mi WSW 5.8 mph - N/A   Partly Cloudy
6:55 AM 35.6 °F 30.7 °F 28.4 °F 75% 30.03 in 70.0 mi South 5.8 mph - N/A   Partly Cloudy
7:55 AM 41.0 °F 36.4 °F 32.0 °F 70% 30.04 in 70.0 mi South 6.9 mph - N/A   Partly Cloudy
8:55 AM 48.2 °F - 24.8 °F 40% 30.01 in 70.0 mi SSW 6.9 mph - N/A   Scattered Clouds
9:55 AM 51.8 °F - 23.0 °F 33% 29.99 in 70.0 mi WNW 9.2 mph - N/A   Mostly Cloudy
10:55 AM 53.6 °F - 23.0 °F 30% 30.00 in 70.0 mi NW 3.5 mph - N/A   Mostly Cloudy
11:55 AM 55.4 °F - 21.2 °F 26% 29.98 in 70.0 mi SW 5.8 mph - N/A   Mostly Cloudy
12:55 PM 57.2 °F - 19.4 °F 23% 29.96 in 70.0 mi West 5.8 mph - N/A   Mostly Cloudy
1:55 PM 59.0 °F - 21.2 °F 23% 29.92 in 70.0 mi East 9.2 mph - N/A   Mostly Cloudy
2:55 PM 60.8 °F - 23.0 °F 23% 29.90 in 70.0 mi East 6.9 mph - N/A   Mostly Cloudy
3:55 PM 59.0 °F - 21.2 °F 23% 29.91 in 70.0 mi East 4.6 mph - N/A   Mostly Cloudy
4:55 PM 59.0 °F - 23.0 °F 25% 29.90 in 70.0 mi North 11.5 mph - N/A   Mostly Cloudy
5:55 PM 55.4 °F - 24.8 °F 31% 29.92 in 70.0 mi NE 4.6 mph - N/A   Mostly Cloudy
6:55 PM 53.6 °F - 26.6 °F 35% 29.94 in 70.0 mi ENE 10.4 mph - N/A   Mostly Cloudy
7:55 PM 50.0 °F - 32.0 °F 50% 29.96 in 70.0 mi ESE 11.5 mph - N/A   Mostly Cloudy
8:55 PM 46.4 °F 41.5 °F 35.6 °F 66% 29.94 in 25.0 mi ESE 10.4 mph - N/A   Mostly Cloudy
9:55 PM 42.8 °F 35.4 °F 35.6 °F 76% 29.94 in 25.0 mi SE 15.0 mph - N/A   Mostly Cloudy
10:55 PM 41.0 °F 34.7 °F 33.8 °F 76% 29.91 in 25.0 mi South 10.4 mph - N/A   Mostly Cloudy
11:55 PM 41.0 °F - 32.0 °F 70% 29.90 in 25.0 mi SSE 1.2 mph - N/A   Mostly Cloudy